Regional Weather Roundup
Issued by NWS

Home | Current Version | Previous Version | Graphics & Text | Print | Product List | Glossary On
Versions: 1 2 3 4 5 6 7 8 9 10 11 12 13 14 15 16 17 18 19 20 21 22 23 24 25 26 27 28 29 30 31 32 33 34 35 36 37 38 39 40 41 42 43 44 45 46 47 48 49 50
000
ASUS43 KMKX 051121
RWRWI

WISCONSIN REGIONAL WEATHER ROUNDUP
NATIONAL WEATHER SERVICE MILWAUKEE/SULLIVAN WI
600 AM CDT SUN JUL 05 2015

NOTE: "FAIR" INDICATES FEW OR NO CLOUDS BELOW 12,000 FEET WITH NO
SIGNIFICANT WEATHER AND/OR OBSTRUCTIONS TO VISIBILITY.

WIZ001-002-006>008-014>016-023>028-051200-
NORTHWEST WISCONSIN

CITY           SKY/WX    TMP DP  RH WIND       PRES   REMARKS
SUPERIOR ARPT  FOG       53  53 100 CALM      29.93S VSB 1/2
ASHLAND        CLEAR     63  62  97 S5        29.94F FOG
HAYWARD        CLEAR     65  60  84 SW5       29.97F
SIREN          CLEAR     64  60  88 S7        29.95R
CUMBERLAND     CLEAR     61  59  94 S5        29.98R
RICE LAKE      CLEAR     63  60  91 SE6       30.00R FOG
CHETEK         CLEAR     63  62  96 E6        30.00R FOG
LADYSMITH        N/A     62  60  94 E3        30.03R FOG
EAU CLAIRE     CLEAR     62  58  86 SE3       29.98S
MENOMONIE      CLEAR     62  60  94 E3        29.99R FOG
NEW RICHMOND   CLEAR     61  60  94 SE3       29.97R
OSCEOLA        CLEAR     63  63  99 SE3       29.98S
$$

WIZ003>005-009-010-017-018-051200-
NORTH CENTRAL WISCONSIN

CITY           SKY/WX    TMP DP  RH WIND       PRES   REMARKS
MANITOWISH WTR CLOUDY    62  62 100 S3        30.03R FOG
ARBOR VITAE    CLEAR     62  60  94 CALM      30.03S FOG
WOODRUFF       CLEAR     62  60  94 CALM      30.03S FOG
RHINELANDER    PTCLDY    62  60  93 S3        30.05R FOG
EAGLE RIVER    CLEAR     63  63 100 CALM      30.03S FOG
LAND O LAKES   FOG       59  59 100 CALM      30.04S VSB<1/4
PHILLIPS       CLEAR     61  61 100 CALM      30.03R FOG
TOMAHAWK       FOG       57  56  97 CALM      30.04S VSB<1/4
MEDFORD          N/A     58  58 100 S5        30.04S FOG
MERRILL        FOG       55  55 100 CALM      30.05R VSB<1/4
$$

WIZ029-030-035-036-043>047-051200-
CENTRAL WISCONSIN

CITY           SKY/WX    TMP DP  RH WIND       PRES   REMARKS
WAUSAU         CLOUDY    64  62  93 E3        30.04R FOG
MOSINEE        MOCLDY    63  63 100 S6        30.05R
MARSHFIELD     CLEAR     61  58  90 S6        30.04R FOG
STEVENS POINT  PTCLDY    60  58  93 CALM      30.06R
WAUPACA          N/A     60  60  98 CALM      30.05R FOG
WAUTOMA        CLEAR     57  57 100 CALM      30.06R FOG
WISC RAPIDS    CLEAR     63  59  87 CALM      30.06R
CAMP DOUGLAS   CLEAR     58  58 100 CALM      30.03R
$$

WIZ011>013-019>022-031-037>040-048>050-051200-
NORTHEAST WISCONSIN

CITY           SKY/WX    TMP DP  RH WIND       PRES   REMARKS
ANTIGO         CLEAR     60  60  99 CALM      30.06R FOG
SHAWANO        CLEAR     65  62  91 CALM      30.05R FOG
OCONTO         CLOUDY    60  60 100 CALM      30.03R
STURGEON BAY   MOCLDY    61  55  82 S3        30.08R
GREEN BAY      CLEAR     63  61  93 CALM      30.05R FOG
MANITOWOC      CLEAR     58  57  97 MISG      30.05R FOG
APPLETON       MOCLDY    64  61  88 SW7       30.05R
CLINTONVILLE   CLEAR     61  61 100 CALM      30.04R FOG
OSHKOSH        CLEAR     65  60  84 S5        30.04R HAZE
$$

WIZ032>034-041-042-053>061-051200-
SOUTHWEST WISCONSIN

CITY           SKY/WX    TMP DP  RH WIND       PRES   REMARKS
LA CROSSE      CLEAR     66  62  87 S8        30.01R
SPARTA         CLEAR     54  53  95 CALM      30.04R
VIROQUA        CLEAR     62  60  93 S5        30.04S
BOSCOBEL       FOG       60  59  96 CALM      30.04R VSB<1/4
PRAIRIE DU CHI CLEAR     60  58  90 E3        30.02S
PLATTEVILLE    CLEAR     61  60  96 SE7       30.05S
$$

WIZ056-057-062-063-064-067-068-051200-
SOUTH CENTRAL WISCONSIN

CITY           SKY/WX    TMP DP  RH WIND       PRES   REMARKS
REEDSBURG      CLEAR     59  58  96 CALM      30.04S
BARABOO/DELLS  CLEAR     59  56  92 S5        30.05S
LONE ROCK      CLEAR     57  54  89 CALM      30.06R FOG
MINERAL POINT  CLEAR     61  59  94 SE6       30.06S
MADISON        PTCLDY    61  58  90 CALM      30.06R
MIDDLETON      CLEAR     61  60  96 CALM      30.06S
WATERTOWN      CLEAR     59  59 100 CALM      30.07R FOG
MONROE         CLEAR     61  59  94 S5        30.07R
JANESVILLE     CLEAR     59  57  94 CALM      30.07R FOG
$$

WIZ051-052-058>065-066-070>072-051200-
SOUTHEAST WISCONSIN

CITY           SKY/WX    TMP DP  RH WIND       PRES   REMARKS
MILWAUKEE      PTCLDY    63  56  78 CALM      30.06R HAZE
WAUKESHA       CLEAR     61  59  94 CALM      30.08R
MILWAUKEE/TIMM CLEAR     61  55  82 CALM      30.07R HAZE
RACINE         CLEAR     59  55  87 W3        30.08R FOG
BURLINGTON     FOG       53  53  99 CALM      30.07R VSB<1/4
KENOSHA        CLEAR     56  54  93 W3        30.07R FOG
FOND DU LAC    CLEAR     63  60  90 SW5       30.06R FOG
SHEBOYGAN      CLEAR     60  58  92 CALM      30.05R FOG
WEST BEND      CLEAR     59  57  94 CALM      30.07R FOG
JUNEAU         CLEAR     60  59  96 CALM      30.08R FOG
$$

LSZ147-162-051200-
LAKE SUPERIOR

STATION/POSITION TIME  TEMP    WIND        PRES    WAVE
                       AIR SEA DIR/SP/G            HT/PER
                 (UTC) (F)     (DEG/KT/KT) (MB)    (FT/S)
W MID LAKE BUOY  1050   46 39  190/  8/  8 1014.0R   0
DEVILS ISLAND    1100   58     180/  8/ 10 1013.3F
SAXON HARBOR     1040   65      CALM  /  4 1014.2R
$$

LMZ867-665-643>646-051200-
LAKE MICHIGAN

STATION/POSITION TIME  TEMP    WIND        PRES    WAVE
                       AIR SEA DIR/SP/G            HT/PER
                 (UTC) (F)     (DEG/KT/KT) (MB)    (FT/S)
CHAMBERS ISLAND  1000   63     150/  4/  7 1016.3R
S GREEN BAY BUOY 1100   69 69  220/ 10/ 12 1018.4R
N MID LAKE BUOY  1050   53 44  190/ 10/ 10 1017.1R   0
NORTHPORT PIER   1000   62     160/  7/ 11 1016.3S
SISTER BAY       1014   59     160/  9/ 12   N/A
ALGOMA LAKESHORE 1011          210/  7/  8   N/A
KEWAUNEE LAKESHO 1100   61      CALM  /  1 1016.7R
SHEBOYGAN LAKESH 1100   62     200/  4/  5 1017.9R
PORT WASHINGTON  1040   62        CALM     1018.3R
ATWATER BUOY     1100   63 59  200/  2/  2 1019.2R
MILWAUKEE LAKESH 1100   65     340/  1/  1   N/A
KENOSHA   LAKESH 1100   64     230/  1/  2 1017.9R
$$

TC  - TEMPERATURE IN CELSIUS
VSB - VISIBILITY IN STATUTE MILES
WCI - WIND CHILL INDEX
HX  - HEAT INDEX




USA.gov is the U.S. government's official web portal to all federal, state and local government web resources and services.